DW1549 Fauske NO current weather conditions

sailwx.info

Wind from 243

Air temperature 3.9° C
Dewpoint 3.2° C

Last reported at 2015-Apr-18 07:49 UTC.
Time now 2015-Apr-18 08:45 UTC

Location: N 67°16' E 015°25'.
View on Google Maps.

See reports from other nearby stations

  
Tides and Currents Weather Stations Pressure Air Temp Water Temp Dewpoint Dewpoint Depression Visibility Wind Speed Wind Dir Waves Ship Positions
date/time (UTC)wind fromknots sea level pressurealtimeterstation pressurevisibilityair tempwater tempwave heightnotes
2015-Apr-18 07:49 243 3.9
2015-Apr-18 07:39 243 3.9
2015-Apr-18 07:29 243 3.9
2015-Apr-18 07:19 243 3.9
2015-Apr-18 07:09 243 3.9
2015-Apr-18 06:59 243 3.9
2015-Apr-18 06:49 243 3.3
2015-Apr-18 06:39 243 3.9
2015-Apr-18 06:29 243 3.9
2015-Apr-18 06:19 243 3.9
2015-Apr-18 06:09 243 3.3
2015-Apr-18 05:59 243 3.3
2015-Apr-18 05:49 243 3.3
2015-Apr-18 05:39 243 3.3
2015-Apr-18 05:29 243 3.3
2015-Apr-18 05:19 243 3.3
2015-Apr-18 05:09 243 3.3
2015-Apr-18 04:59 243 2.8
2015-Apr-18 04:49 243 3.3
2015-Apr-18 04:39 244 2.8
2015-Apr-18 04:29 243 2.8
2015-Apr-18 04:19 244 1 gusting 2 2.8
2015-Apr-18 04:09 246 2.8
2015-Apr-18 03:59 246 2.8
2015-Apr-18 03:49 246 2.8
2015-Apr-18 03:39 246 0 gusting 2 2.8
2015-Apr-18 03:29 247 2.8
2015-Apr-18 03:19 247 2.8
2015-Apr-18 03:09 247 2.8
2015-Apr-18 02:59 247 2.8
2015-Apr-18 02:49 247 2.8
2015-Apr-18 02:39 247 2.8
2015-Apr-18 02:29 247 2.8
2015-Apr-18 02:19 247 2.8
2015-Apr-18 02:09 247 2.8
2015-Apr-18 01:59 247 3.3
2015-Apr-18 01:49 247 3.3
2015-Apr-18 01:39 247 3.3
2015-Apr-18 01:29 247 3.3
2015-Apr-18 01:19 247 3.3
2015-Apr-18 01:09 247 3.3
2015-Apr-18 00:59 247 3.3
2015-Apr-18 00:49 247 3.3
2015-Apr-18 00:39 247 3.3
2015-Apr-18 00:29 247 3.3
2015-Apr-18 00:19 247 3.3
2015-Apr-18 00:09 247 3.3
2015-Apr-17 23:59 247 3.3
2015-Apr-17 23:49 247 3.3
2015-Apr-17 23:39 247 3.3
2015-Apr-17 23:29 247 3.3
2015-Apr-17 23:19 247 3.3
2015-Apr-17 23:09 247 3.3
2015-Apr-17 22:59 247 3.9
2015-Apr-17 22:49 247 3.9
2015-Apr-17 22:39 247 3.9
2015-Apr-17 22:29 247 3.9
2015-Apr-17 22:19 247 3.9
2015-Apr-17 22:09 247 3.9
2015-Apr-17 21:59 247 3.9
2015-Apr-17 21:49 247 3.9
2015-Apr-17 21:39 247 3.9
2015-Apr-17 21:29 247 3.9
2015-Apr-17 21:19 247 3.9
2015-Apr-17 21:09 247 3.9
2015-Apr-17 20:59 247 3.9
2015-Apr-17 20:49 247 3.9
2015-Apr-17 20:39 247 4.4
2015-Apr-17 20:29 247 4.4
2015-Apr-17 20:19 247 4.4
2015-Apr-17 20:09 247 4.4
2015-Apr-17 19:59 247 4.4
2015-Apr-17 19:49 247 4.4
2015-Apr-17 19:39 247 4.4
2015-Apr-17 19:29 247 4.4
2015-Apr-17 19:19 247 4.4
2015-Apr-17 19:09 243 4.4
2015-Apr-17 18:59 247 0 gusting 4 5.0
2015-Apr-17 18:49 248 1 gusting 10 5.0
2015-Apr-17 18:39 253 5.0
2015-Apr-17 18:29 245 1 gusting 6 5.0
2015-Apr-17 18:19 259 0 gusting 5 5.0
2015-Apr-17 18:09 257 0 gusting 4 5.0
2015-Apr-17 17:59 255 5.0
2015-Apr-17 17:49 259 1 gusting 6 5.0
2015-Apr-17 17:39 262 0 gusting 5 5.0
2015-Apr-17 17:29 243 0 gusting 5 5.0
2015-Apr-17 17:19 241 0 gusting 4 5.0
2015-Apr-17 17:09 263 5.0
2015-Apr-17 16:59 263 5.6
2015-Apr-17 16:49 263 5.6
2015-Apr-17 16:39 263 5.6
2015-Apr-17 16:29 263 5.6
2015-Apr-17 16:19 263 0 gusting 2 5.6
2015-Apr-17 16:09 262 5.6
2015-Apr-17 15:59 264 5.6
2015-Apr-17 15:49 258 0 gusting 5 5.6
2015-Apr-17 15:39 249 0 gusting 6 5.6
2015-Apr-17 15:29 239 2 gusting 10 6.1
2015-Apr-17 15:19 247 1 gusting 6 6.1
2015-Apr-17 15:09 248 4 gusting 6 6.1
2015-Apr-17 14:59 244 1 gusting 6 6.1
2015-Apr-17 14:49 245 1 gusting 6 6.1
2015-Apr-17 14:39 233 1 gusting 6 6.1
2015-Apr-17 14:29 250 0 gusting 8 6.1
2015-Apr-17 14:19 252 1 gusting 7 6.1
2015-Apr-17 14:09 250 2 gusting 6 6.1
2015-Apr-17 13:59 249 2 gusting 8 6.1
2015-Apr-17 13:49 252 1 gusting 5 6.1
2015-Apr-17 13:39 286 1 gusting 7 6.1
2015-Apr-17 13:29 279 1 gusting 8 6.1
2015-Apr-17 13:19 243 2 gusting 7 6.1
2015-Apr-17 13:09 253 0 gusting 10 6.1
2015-Apr-17 12:59 250 4 gusting 12 6.7
2015-Apr-17 12:49 237 3 gusting 10 6.7
2015-Apr-17 12:39 259 6 gusting 12 7.2
2015-Apr-17 12:29 256 2 gusting 8 7.2
2015-Apr-17 12:19 252 2 gusting 11 7.2
2015-Apr-17 12:09 251 2 gusting 10 7.2
2015-Apr-17 11:59 260 5 gusting 10 6.7
2015-Apr-17 11:49 252 3 gusting 10 6.7
2015-Apr-17 11:39 224 4 gusting 10 6.7
2015-Apr-17 11:29 235 4 gusting 10 7.2
2015-Apr-17 11:19 222 1 gusting 8 6.7
2015-Apr-17 11:09 257 4 gusting 10 6.7
2015-Apr-17 10:59 237 2 gusting 7 6.7
2015-Apr-17 10:49 260 1 gusting 10 6.7
2015-Apr-17 10:39 241 4 gusting 10 6.1
2015-Apr-17 10:29 213 0 gusting 5 6.1
2015-Apr-17 10:19 223 0 gusting 4 6.1
2015-Apr-17 10:09 284 0 gusting 5 6.1
2015-Apr-17 09:59 293 1 gusting 8 6.1
2015-Apr-17 09:49 244 1 gusting 6 6.7
2015-Apr-17 09:39 027 6.1
2015-Apr-17 09:29 027 6.1
2015-Apr-17 09:19 027 6.1
2015-Apr-17 09:09 027 6.1
2015-Apr-17 08:59 027 6.1
2015-Apr-17 08:49 027 6.1
2015-Apr-17 08:39 027 0 gusting 2 6.1
2015-Apr-17 08:29 027 5.6
2015-Apr-17 08:19 027 5.6
2015-Apr-17 08:09 027 5.0
2015-Apr-17 07:59 027 5.0
2015-Apr-17 07:49 027 4.4
2015-Apr-17 07:39 027 4.4
2015-Apr-17 07:29 027 4.4
2015-Apr-17 07:19 027 3.9
2015-Apr-17 07:09 027 3.9
2015-Apr-17 06:59 027 3.3
2015-Apr-17 06:49 027 3.3
2015-Apr-17 06:39 027 3.3
2015-Apr-17 06:29 027 2.8
2015-Apr-17 06:19 027 2.8
2015-Apr-17 06:09 027 2.8
2015-Apr-17 05:59 027 2.2
2015-Apr-17 05:49 027 2.2
2015-Apr-17 05:39 027 2.2
2015-Apr-17 05:29 027 2.2
2015-Apr-17 05:19 027 1.7
2015-Apr-17 05:09 027 1.7
2015-Apr-17 04:59 027 1.7
2015-Apr-17 04:49 027 1.7
2015-Apr-17 04:39 027 1.1
2015-Apr-17 04:29 027 1.1
2015-Apr-17 04:19 027 1.1
2015-Apr-17 04:09 027 1.1
2015-Apr-17 03:59 027 1.1
2015-Apr-17 03:49 027 1.1
2015-Apr-17 03:39 027 1.1
2015-Apr-17 03:29 027 0.6
2015-Apr-17 03:19 027 0.6
2015-Apr-17 03:09 027 0.6
2015-Apr-17 02:59 027 0.6
2015-Apr-17 02:49 027 0.6
2015-Apr-17 02:39 027 0.6
2015-Apr-17 02:29 027 0.6
2015-Apr-17 02:19 027 1.1
2015-Apr-17 02:09 027 1.1
2015-Apr-17 01:59 027 1.1
2015-Apr-17 01:49 027 1.1
2015-Apr-17 01:39 027 1.1
2015-Apr-17 01:29 027 1.1
2015-Apr-17 01:19 027 1.1
2015-Apr-17 01:09 027 1.1
2015-Apr-17 00:59 027 1.1
2015-Apr-17 00:49 027 1.1
2015-Apr-17 00:39 027 1.7
2015-Apr-17 00:29 027 1.7
2015-Apr-17 00:19 027 1.7
2015-Apr-17 00:09 027 1.7
2015-Apr-16 23:59 027 1.7
2015-Apr-16 23:49 027 1.7
2015-Apr-16 23:39 027 2.2
2015-Apr-16 23:29 027 2.2
2015-Apr-16 23:19 027 2.2
2015-Apr-16 23:09 027 2.8
2015-Apr-16 22:59 027 2.8
2015-Apr-16 22:49 027 2.8
2015-Apr-16 22:39 027 2.8
2015-Apr-16 22:29 027 2.8
2015-Apr-16 22:19 027 2.8
2015-Apr-16 22:09 027 2.8
2015-Apr-16 21:59 027 2.8
2015-Apr-16 21:49 027 2.8
2015-Apr-16 21:39 027 2.8
2015-Apr-16 21:29 027 2.8
2015-Apr-16 21:19 027 2.8
2015-Apr-16 21:09 027 2.8
2015-Apr-16 20:59 027 2.8
2015-Apr-16 20:49 027 3.3
2015-Apr-16 20:39 027 3.3
2015-Apr-16 20:29 027 3.3
2015-Apr-16 20:19 027 3.3
2015-Apr-16 20:09 027 3.3
2015-Apr-16 19:59 027 3.9
2015-Apr-16 19:49 027 3.9
2015-Apr-16 19:39 027 3.9
2015-Apr-16 19:29 027 4.4
2015-Apr-16 19:19 027 4.4
2015-Apr-16 19:09 027 4.4
2015-Apr-16 18:59 027 5.0
2015-Apr-16 18:49 027 5.0
2015-Apr-16 18:39 027 5.6
2015-Apr-16 18:29 027 5.6
2015-Apr-16 18:19 027 6.1
2015-Apr-16 18:09 027 6.1
2015-Apr-16 17:59 027 6.7
2015-Apr-16 17:49 027 0 gusting 2 6.7
2015-Apr-16 17:39 026 7.2
2015-Apr-16 17:29 026 7.2
2015-Apr-16 17:19 025 7.2
2015-Apr-16 17:09 022 1 gusting 2 7.8
2015-Apr-16 16:59 327 7.8
2015-Apr-16 16:49 327 7.8
2015-Apr-16 16:39 313 7.8
2015-Apr-16 16:29 323 0 gusting 2 7.8
2015-Apr-16 16:19 301 0 gusting 4 7.8
2015-Apr-16 16:09 311 0 gusting 2 7.8
2015-Apr-16 15:59 332 7.8
2015-Apr-16 15:49 269 1 gusting 6 8.3
2015-Apr-16 15:39 321 0 gusting 6 8.9
2015-Apr-16 15:29 002 0 gusting 7 8.9
2015-Apr-16 15:19 026 0 gusting 8 9.4
2015-Apr-16 15:09 288 1 gusting 5 10.0
2015-Apr-16 14:59 311 2 gusting 8 9.4
2015-Apr-16 14:49 009 1 gusting 8 10.0
2015-Apr-16 14:39 045 9.4
2015-Apr-16 14:29 305 0 gusting 4 8.9
2015-Apr-16 14:19 016 1 gusting 8 8.3
2015-Apr-16 14:09 344 1 gusting 4 8.9
2015-Apr-16 13:59 307 3 gusting 7 8.9
2015-Apr-16 13:49 299 0 gusting 4 9.4
2015-Apr-16 13:39 050 8.9
2015-Apr-16 13:29 055 1 gusting 6 8.3
2015-Apr-16 13:19 022 3 gusting 8 8.3
2015-Apr-16 13:09 051 2 gusting 7 8.9
2015-Apr-16 12:59 034 4 gusting 8 9.4
2015-Apr-16 12:49 030 4 gusting 10 9.4
2015-Apr-16 12:39 329 0 gusting 8 8.9
2015-Apr-16 12:29 014 1 gusting 6 8.9
2015-Apr-16 12:19 060 1 gusting 5 8.3
2015-Apr-16 12:09 343 2 gusting 5 8.3
2015-Apr-16 11:59 006 1 gusting 8 8.9
2015-Apr-16 11:49 006 1 gusting 7 8.3
2015-Apr-16 11:39 028 1 gusting 4 8.3
2015-Apr-16 11:29 041 1 gusting 7 8.3
2015-Apr-16 11:19 344 1 gusting 8 8.9
2015-Apr-16 11:09 168 0 gusting 4 7.8
2015-Apr-16 10:59 211 1 gusting 2 7.8
2015-Apr-16 10:49 306 0 gusting 4 7.8
2015-Apr-16 10:39 265 1 gusting 5 8.3
2015-Apr-16 10:29 199 1 gusting 4 7.8
2015-Apr-16 10:19 195 0 gusting 2 7.8
2015-Apr-16 10:09 195 2 gusting 6 6.7
2015-Apr-16 09:59 109 0 gusting 2 6.7
2015-Apr-16 09:49 106 5.6
2015-Apr-16 09:39 106 5.0
2015-Apr-16 09:29 106 4.4
2015-Apr-16 09:19 106 4.4
2015-Apr-16 09:09 106 4.4
2015-Apr-16 08:59 106 4.4
2015-Apr-16 08:49 106 4.4
2015-Apr-16 08:39 106 3.9
2015-Apr-16 08:29 106 3.9
2015-Apr-16 08:19 106 3.9
2015-Apr-16 08:09 106 3.9